Charleston, SC

5:02 PM EST on December 15, 2017 (GMT -0500)
Charleston Air Force Base-International

Weather History for KCHS - February, 2013

Change the Weather History Date:

Thursday, February 7, 2013

  Actual Average Record
Temperature  
Mean Temperature 53 °F 50 °F  
Max Temperature 61 °F 61 °F 79 °F (1999)
Min Temperature 45 °F 39 °F 19 °F (1978)
Degree Days  
Heating Degree Days 12 15  
Month to date heating degree days 102 107  
Since 1 July heating degree days 1115 1366  
Cooling Degree Days 0 0  
Month to date cooling degree days 0 0  
Year to date cooling degree days 21 2  
Growing Degree Days 3 (Base 50)    
Moisture  
Dew Point 52 °F    
Average Humidity 89    
Maximum Humidity 100    
Minimum Humidity 78    
Precipitation  
Precipitation 1.71 in 0.10 in 2.24 in (1953)
Month to date precipitation 1.71 0.77  
Year to date precipitation 2.06 4.48  
Snow  
Snow 0.00 in 0.00 in - ()
Month to date snowfall 0.0  
Since 1 July snowfall 0.0 0.3  
Snow Depth 0.00 in    
Sea Level Pressure  
Sea Level Pressure 30.01 in    
Wind  
Wind Speed 8 mph (ENE)    
Max Wind Speed 20 mph    
Max Gust Speed 28 mph    
Visibility 6 miles    
Events Fog , Rain    
T = Trace of Precipitation, MM = Missing Value Source: NWS Daily Summary

Daily Weather History Graph

Daily Weather History Graph

Search for Another Location

Airport or City:

Trip Planner

Search our weather history database for the weather conditions in past years. The results will help you decide how hot, cold, wet, or windy it might be!

Date:

Astronomy

Feb. 07, 2013 Rise Set
Actual Time 7:10 AM EST 5:58 PM EST
Civil Twilight 6:44 AM EST 6:24 PM EST
Nautical Twilight 6:15 AM EST 6:53 PM EST
Astronomical Twilight 5:46 AM EST 7:22 PM EST
Moon 4:43 AM EST (2/7) 3:25 PM EST (2/7)
Length of Visible Light 11h 39m
Length of Day
10h 48m
Waning Crescent, 9% of the Moon is Illuminated
Feb 7
Waning Crescent
Feb 10
New
Feb 17
First Quarter
Feb 25
Full
Mar 4
Last Quarter

Hourly Weather History & Observations

Time (EST) Temp. Windchill Dew Point Humidity Pressure Visibility Wind Dir Wind Speed Gust Speed Precip Events Conditions
12:56 AM 50.0 °F - 46.0 °F 86% 30.17 in 7.0 mi Calm Calm - N/A Fog Shallow Fog
1:56 AM 48.9 °F - 46.0 °F 90% 30.17 in 7.0 mi Calm Calm - N/A Fog Shallow Fog
2:56 AM 45.0 °F 42.6 °F 44.1 °F 97% 30.16 in 7.0 mi ENE 4.6 mph - N/A Fog Shallow Fog
3:56 AM 46.9 °F - 46.0 °F 97% 30.16 in 8.0 mi North 3.5 mph - N/A   Scattered Clouds
4:56 AM 46.9 °F - 46.0 °F 97% 30.16 in 6.0 mi NE 6.9 mph - N/A   Partly Cloudy
5:56 AM 50.0 °F - 48.0 °F 93% 30.16 in 8.0 mi NE 6.9 mph - N/A   Scattered Clouds
6:56 AM 51.1 °F - 48.9 °F 92% 30.17 in 10.0 mi ENE 8.1 mph - N/A   Mostly Cloudy
7:56 AM 52.0 °F - 48.9 °F 89% 30.16 in 10.0 mi NE 10.4 mph - N/A   Overcast
8:56 AM 53.1 °F - 51.1 °F 93% 30.16 in 10.0 mi ENE 5.8 mph - N/A   Mostly Cloudy
9:56 AM 57.0 °F - 52.0 °F 83% 30.15 in 10.0 mi ENE 6.9 mph - 0.00 in   Overcast
10:56 AM 61.0 °F - 54.0 °F 78% 30.12 in 10.0 mi East 11.5 mph - N/A   Overcast
11:56 AM 59.0 °F - 54.0 °F 83% 30.09 in 7.0 mi East 13.8 mph - 0.00 in Rain Light Rain
12:56 PM 57.9 °F - 55.9 °F 93% 30.08 in 5.0 mi NE 6.9 mph - 0.09 in Rain Light Rain
1:56 PM 57.0 °F - 55.0 °F 93% 30.04 in 3.0 mi NE 9.2 mph - 0.12 in Rain Rain
2:56 PM 55.9 °F - 54.0 °F 93% 30.01 in 3.0 mi ENE 13.8 mph - 0.14 in Rain Rain
3:56 PM 55.0 °F - 54.0 °F 96% 29.99 in 3.0 mi ENE 11.5 mph - 0.16 in Rain Rain
4:56 PM 55.9 °F - 54.0 °F 93% 29.96 in 3.0 mi NE 8.1 mph - 0.22 in Rain Light Rain
5:56 PM 55.9 °F - 54.0 °F 93% 29.94 in 3.0 mi NE 10.4 mph - 0.07 in Rain Light Rain
6:56 PM 55.9 °F - 54.0 °F 93% 29.91 in 3.0 mi NE 11.5 mph - 0.13 in Rain Heavy Rain
7:56 PM 55.0 °F - 54.0 °F 96% 29.86 in 3.0 mi NE 17.3 mph - 0.05 in Rain Heavy Rain
8:56 PM 55.0 °F - 54.0 °F 96% 29.85 in 5.0 mi Variable 6.9 mph - 0.10 in Rain Rain
9:56 PM 55.9 °F - 55.0 °F 97% 29.81 in 3.0 mi ENE 3.5 mph - 0.25 in Rain Heavy Rain
10:23 PM 55.4 °F - 55.4 °F 100% 29.77 in 3.0 mi East 15.0 mph - 0.13 in Rain Heavy Rain
10:56 PM 57.0 °F - 55.0 °F 93% 29.75 in 3.0 mi East 9.2 mph - 0.25 in Rain Heavy Rain
11:20 PM 55.4 °F - 55.4 °F 100% 29.73 in 5.0 mi ENE 8.1 mph - 0.09 in Rain Rain
11:38 PM 55.4 °F - 55.4 °F 100% 29.72 in 10.0 mi East 3.5 mph - 0.10 in Rain Light Rain
11:56 PM 57.0 °F - 55.0 °F 93% 29.72 in 10.0 mi Calm Calm - 0.13 in Rain Light Rain